STARLINK-32302, 61621

Orbit data source: Space-Track

STARLINK-32302, 61621 is a payload satellite owned by SpaceX/Seattle (US) in LEO that was launched on Wed, 23 Oct 2024 UTC via an FALCON 9 launch vehicle from the Air Force Eastern Test Range (AFETR). Payload-class satellites include a variety of spacecraft equipped with specific instruments for various scientific and technological missions. These include communications satellites like Starlink; space stations such as the ISS; scientific satellites like the Hubble; Earth observation satellites from companies like Planet Labs, Umbra, and HawkEye 360; GPS; miniature CubeSats for education and research; and military/defense satellites.

Loading next visibility...
Identifier
61621, 2024-191A
Orbit
LEO
Last TLE update
2 days ago
Origin
Manufacturer
SpaceX/Seattle
Mission
Operational Commercial Communications
Bus & Motor
STARLINK V2M, Unknown motor
Mass
730 kg wet, ~700 kg dry
Launch date (UTC)
2024-10-23 (8 months ago)
Launch vehicle
FALCON 9
Launch site
Air Force Eastern Test Range (AFETR)
Object type
Payload
Rocket body
Debris
Shape & HBR
Box + 2 Pan, 29 m
Radar Cross Section
36.964 m², Large (>1 m²)

Expand to show TLE details & history

TLE from 2 days ago
0 STARLINK-32302
1 61621U 24191A   25186.16418983 -.00000237  00000-0  89363-6 0  9993
2 61621  42.9998 112.1307 0000629 151.0278 209.0608 15.27579917 40434
Epoch: 2025-07-05T03:56Z
TLE epoch observation values (Epoch: 2025-07-05T03:56:26.001Z)
Latitude
-0.00005°
Longitude
129.61614°
Altitude
483.202 km
Speed
7.625 km/s
True Right ascension
07h 28m 31s
True Declination
0° 00' 00"
Sunlit
Object was in daylight at epoch
Visualization orbit readout
Latitude
-41.09103°
Longitude
8.56099°
Altitude
495.56 km
Speed
7.617 km/s
Apparent Right ascension
21h 53m 14s
Apparent Declination
-42° 47' 51"
Sunlit
Object is in full shadow
Visualization observer readout
Local Sidereal Time
08:16:29
Azimuth
253.054° W
Elevation
-71.681°
Doppler factor
1
Orbital elements
Apogee altitude
485.426 km
Perigee altitude
484.563 km
Semi-major axis
6,863.132 km
Eccentricity
0.00006
Inclination
42.9998°
RAAN
112.1307°
Arg. of periapsis
151.0278°
True anomaly
Unknown
Mean anomaly
209.0608°
Eccentric anomaly
Unknown
Mean motion
3.81733 °/min
Orbital period
94.31 mins
BSTAR
8.9363e-7
Loading maneuver chart data...
Loading SW <> Apogee altitude chart data...
Loading historical data...
Loading historical data...
Loading historical data...
Loading historical data...
Loading historical data...
Loading historical data...
Loading historical data...

STARLINK-32302 Visibility forecast

Observer location: undefined°, undefined°

Span
Click to sort rows by Start time (UTC) header in descending order
Start Az.
Max El. time (UTC)
Max El. Az.
Max El.
End time (UTC)
End Az.
5 mins2025-07-06 22:33:42.320Z233.326° WSW2025-07-06 22:35:42.320Z155.228° SSE42.55°2025-07-06 22:38:42.320Z76.276° E
5 mins2025-07-07 00:12:42.320Z285.114° WNW2025-07-07 00:14:42.320Z352.351° N38.985°2025-07-07 00:17:42.320Z70.159° E
5 mins2025-07-07 01:51:42.320Z294.266° NW2025-07-07 01:53:42.320Z346.459° N41.836°2025-07-07 01:56:42.320Z92.852° ESE
5 mins2025-07-07 03:30:42.320Z267.062° W2025-07-07 03:32:42.320Z213.205° SW32.069°2025-07-07 03:35:42.320Z143.198° SSE
|